Terminal Aerodrome Forecast
Issued by NWS Cleveland, OH

Home | Current Version | Previous Version | Text Only | Print | Product List | Glossary Off
Versions: 1 2 3 4 5 6 7 8 9 10 11 12 13 14 15 16 17 18 19 20 21 22 23 24 25 26 27 28 29 30 31 32 33 34 35 36 37

000
FTUS41 KCLE 251100
TAFCLE
TAF
KCLE 251133Z 2512/2618 15012G18KT 6SM -RA BR SCT030 OVC050
      WS020/18045KT
      TEMPO 2512/2514 4SM -RA
     FM251430 19015G25KT P6SM VCSH BKN020 OVC050
      TEMPO 2515/2517 BKN015 OVC025
     FM252000 24014G22KT P6SM BKN025 BKN045
     FM252200 22010KT P6SM SCT025 BKN250
     FM261000 24005KT P6SM VCSH BKN070 OVC100
     FM261300 36003KT 3SM -RA BR OVC012=

USA.gov is the U.S. government's official web portal to all federal, state and local government web resources and services.